| time (UTC) | temp C | wind direction | speed KPH | gust KPH | rain 1hr cm | rain 24hr cm | rain mn cm | humidity % | barometer mb |
| 20260506204945 | 12 | 100 | 0.0 | 0.0 | 0.00 | 0.91 | 0.91 | 56 | 1011.5 |
| 20260506204443 | 12 | 92 | 0.0 | 0.0 | 0.00 | 0.91 | 0.91 | 58 | 1011.7 |
| 20260506203941 | 12 | 122 | 1.6 | 1.6 | 0.00 | 0.91 | 0.91 | 58 | 1011.4 |
| 20260506203438 | 12 | 258 | 1.6 | 1.6 | 0.00 | 0.91 | 0.91 | 57 | 1011.3 |
| 20260506202935 | 12 | 112 | 0.0 | 0.0 | 0.00 | 0.91 | 0.91 | 59 | 1011.4 |
| 20260506202432 | 12 | 42 | 3.2 | 3.2 | 0.00 | 0.91 | 0.91 | 61 | 1011.3 |
| 20260506201928 | 12 | 118 | 0.0 | 0.0 | 0.00 | 0.91 | 0.91 | 60 | 1011.4 |
| 20260506201426 | 12 | 105 | 0.0 | 0.0 | 0.00 | 0.91 | 0.91 | 60 | 1011.5 |
| 20260506200922 | 12 | 101 | 0.0 | 0.0 | 0.00 | 0.91 | 0.91 | 59 | 1011.6 |
| 20260506200418 | 12 | 79 | 0.0 | 1.6 | 0.00 | 0.91 | 0.91 | 61 | 1011.6 |
| 20260506195915 | 12 | 328 | 1.6 | 3.2 | 0.00 | 0.91 | 0.91 | 56 | 1011.7 |
| 20260506195412 | 12 | 137 | 0.0 | 3.2 | 0.00 | 0.91 | 0.91 | 61 | 1011.6 |
| 20260506194909 | 12 | 239 | 3.2 | 3.2 | 0.00 | 0.91 | 0.91 | 55 | 1011.6 |
| 20260506194406 | 12 | 82 | 3.2 | 4.8 | 0.00 | 0.91 | 0.91 | 60 | 1011.6 |
| 20260506193903 | 12 | 111 | 0.0 | 0.0 | 0.00 | 0.91 | 0.91 | 59 | 1011.6 |
| 20260506193400 | 13 | 123 | 1.6 | 1.6 | 0.00 | 0.91 | 0.91 | 58 | 1011.7 |
| 20260506192856 | 13 | 115 | 3.2 | 3.2 | 0.00 | 0.91 | 0.91 | 54 | 1011.4 |
| 20260506192353 | 13 | 98 | 1.6 | 1.6 | 0.00 | 0.91 | 0.91 | 58 | 1011.5 |
| 20260506191850 | 13 | 42 | 1.6 | 1.6 | 0.00 | 0.91 | 0.91 | 57 | 1011.2 |
| 20260506191346 | 13 | 102 | 0.0 | 0.0 | 0.00 | 0.91 | 0.91 | 54 | 1011.3 |
| 20260506190844 | 14 | 77 | 1.6 | 3.2 | 0.00 | 0.91 | 0.91 | 53 | 1011.4 |
| 20260506190340 | 14 | 90 | 1.6 | 3.2 | 0.00 | 0.91 | 0.91 | 57 | 1011.0 |
| 20260506185837 | 14 | 84 | 3.2 | 4.8 | 0.00 | 0.91 | 0.91 | 59 | 1011.3 |
| 20260506185334 | 13 | 178 | 0.0 | 3.2 | 0.00 | 0.91 | 0.91 | 59 | 1011.7 |
| 20260506184831 | 14 | 122 | 0.0 | 1.6 | 0.00 | 0.91 | 0.91 | 51 | 1011.5 |
| 20260506184328 | 15 | 299 | 3.2 | 4.8 | 0.00 | 0.91 | 0.91 | 63 | 1011.5 |
| 20260506183825 | 14 | 98 | 0.0 | 0.0 | 0.00 | 0.91 | 0.91 | 55 | 1011.7 |
| 20260506183320 | 14 | 88 | 0.0 | 0.0 | 0.00 | 0.91 | 0.91 | 54 | 1011.6 |
| 20260506182818 | 15 | 113 | 1.6 | 3.2 | 0.00 | 0.91 | 0.91 | 51 | 1011.4 |
| 20260506182315 | 14 | 66 | 1.6 | 3.2 | 0.00 | 0.91 | 0.91 | 56 | 1011.3 |
| 20260506181813 | 14 | 100 | 0.0 | 1.6 | 0.00 | 0.91 | 0.91 | 59 | 1011.5 |
| 20260506181310 | 15 | 77 | 3.2 | 3.2 | 0.00 | 0.91 | 0.91 | 55 | 1011.4 |
| 20260506180807 | 15 | 94 | 0.0 | 0.0 | 0.00 | 0.91 | 0.91 | 50 | 1011.5 |
| 20260506180303 | 15 | 256 | 1.6 | 1.6 | 0.00 | 0.91 | 0.91 | 62 | 1011.5 |
| 20260506175759 | 15 | 103 | 0.0 | 1.6 | 0.00 | 0.91 | 0.91 | 58 | 1011.4 |
| 20260506175256 | 14 | 131 | 1.6 | 3.2 | 0.00 | 0.91 | 0.91 | 58 | 1011.7 |
| 20260506174754 | 14 | 133 | 1.6 | 3.2 | 0.00 | 0.91 | 0.91 | 55 | 1011.6 |
| 20260506174251 | 13 | 139 | 1.6 | 3.2 | 0.00 | 0.91 | 0.91 | 59 | 1011.4 |
| 20260506173749 | 15 | 189 | 3.2 | 3.2 | 0.00 | 0.91 | 0.91 | 50 | 1011.3 |
| 20260506173245 | 15 | 121 | 0.0 | 0.0 | 0.00 | 0.91 | 0.91 | 51 | 1011.2 |
| 20260506172742 | 15 | 115 | 1.6 | 1.6 | 0.00 | 0.91 | 0.91 | 47 | 1011.3 |
| 20260506172238 | 15 | 112 | 0.0 | 1.6 | 0.00 | 0.91 | 0.91 | 63 | 1011.3 |
| 20260506171736 | 13 | 102 | 3.2 | 3.2 | 0.00 | 0.91 | 0.91 | 54 | 1011.5 |
| 20260506171233 | 13 | 72 | 3.2 | 3.2 | 0.00 | 0.91 | 0.91 | 57 | 1011.5 |
| 20260506170731 | 13 | 101 | 0.0 | 1.6 | 0.00 | 0.91 | 0.91 | 54 | 1011.3 |
| 20260506170227 | 13 | 241 | 3.2 | 4.8 | 0.00 | 0.91 | 0.91 | 56 | 1011.5 |
| 20260506165726 | 13 | 289 | 3.2 | 3.2 | 0.00 | 0.91 | 0.91 | 58 | 1011.3 |
| 20260506165222 | 13 | 46 | 4.8 | 4.8 | 0.00 | 0.91 | 0.91 | 57 | 1011.4 |
| 20260506164715 | 15 | 261 | 1.6 | 3.2 | 0.00 | 0.91 | 0.91 | 61 | 1011.4 |
| 20260506164211 | 14 | 111 | 1.6 | 1.6 | 0.00 | 0.91 | 0.91 | 62 | 1011.5 |
| 20260506163708 | 13 | 354 | 3.2 | 3.2 | 0.00 | 0.91 | 0.91 | 56 | 1011.5 |
| 20260506163203 | 13 | 59 | 1.6 | 1.6 | 0.00 | 0.91 | 0.91 | 62 | 1011.4 |
| 20260506162659 | 13 | 340 | 0.0 | 1.6 | 0.00 | 0.91 | 0.91 | 59 | 1011.6 |
| 20260506162157 | 13 | 123 | 1.6 | 1.6 | 0.00 | 0.91 | 0.91 | 63 | 1011.4 |
| 20260506161654 | 13 | 147 | 1.6 | 1.6 | 0.00 | 0.91 | 0.91 | 62 | 1011.3 |
| 20260506161150 | 13 | 132 | 0.0 | 1.6 | 0.00 | 0.91 | 0.91 | 66 | 1011.4 |
| 20260506160648 | 13 | 161 | 1.6 | 1.6 | 0.00 | 0.91 | 0.91 | 68 | 1011.2 |
| 20260506160145 | 13 | 82 | 1.6 | 1.6 | 0.00 | 0.91 | 0.91 | 67 | 1011.3 |
| 20260506155643 | 12 | 348 | 1.6 | 3.2 | 0.00 | 0.91 | 0.91 | 62 | 1011.1 |
| 20260506155140 | 12 | 102 | 0.0 | 1.6 | 0.00 | 0.91 | 0.91 | 66 | 1011.0 |
| 20260506153242 | 12 | 68 | 3.2 | 4.8 | 0.00 | 0.91 | 0.91 | 66 | 1010.7 |
| 20260506152739 | 12 | 288 | 0.0 | 1.6 | 0.00 | 0.91 | 0.91 | 69 | 1010.6 |
| 20260506152237 | 12 | 80 | 0.0 | 0.0 | 0.00 | 0.91 | 0.91 | 72 | 1010.9 |
| 20260506151736 | 11 | 109 | 0.0 | 0.0 | 0.00 | 0.91 | 0.91 | 73 | 1010.9 |
| 20260506151232 | 11 | 91 | 0.0 | 0.0 | 0.00 | 0.91 | 0.91 | 71 | 1011.0 |
| 20260506150728 | 11 | 107 | 1.6 | 1.6 | 0.00 | 0.91 | 0.91 | 76 | 1010.8 |
| 20260506150226 | 11 | 51 | 1.6 | 1.6 | 0.00 | 0.91 | 0.91 | 75 | 1011.0 |
| 20260506145722 | 11 | 71 | 1.6 | 1.6 | 0.00 | 0.91 | 0.91 | 72 | 1010.8 |
| 20260506145219 | 11 | 95 | 0.0 | 0.0 | 0.00 | 0.91 | 0.91 | 80 | 1010.7 |
| 20260506144716 | 11 | 323 | 1.6 | 1.6 | 0.00 | 0.91 | 0.91 | 79 | 1010.6 |
| 20260506144213 | 11 | 58 | 1.6 | 1.6 | 0.00 | 0.91 | 0.91 | 82 | 1010.3 |
| 20260506143710 | 10 | 106 | 0.0 | 1.6 | 0.00 | 0.91 | 0.91 | 77 | 1010.3 |
| 20260506143208 | 11 | 204 | 0.0 | 1.6 | 0.00 | 0.91 | 0.91 | 82 | 1010.1 |
| 20260506142707 | 10 | 108 | 1.6 | 3.2 | 0.00 | 0.91 | 0.91 | 79 | 1010.2 |
| 20260506142204 | 10 | 124 | 0.0 | 0.0 | 0.00 | 0.91 | 0.91 | 84 | 1010.1 |
| 20260506141702 | 9 | 110 | 0.0 | 0.0 | 0.00 | 0.91 | 0.91 | 88 | 1010.0 |
| 20260506141200 | 9 | 172 | 0.0 | 1.6 | 0.00 | 0.91 | 0.91 | 90 | 1010.3 |
| 20260506140657 | 8 | 140 | 0.0 | 1.6 | 0.00 | 0.91 | 0.91 | 90 | 1010.0 |
| 20260506140154 | 8 | 110 | 0.0 | 0.0 | 0.00 | 0.91 | 0.91 | 92 | 1010.0 |
| 20260506135651 | 8 | 80 | 1.6 | 1.6 | 0.00 | 0.91 | 0.91 | 91 | 1010.0 |
| 20260506135147 | 8 | 85 | 0.0 | 0.0 | 0.00 | 0.91 | 0.91 | 93 | 1010.0 |
| 20260506134644 | 8 | 80 | 0.0 | 0.0 | 0.00 | 0.91 | 0.91 | 93 | 1010.0 |
| 20260506134140 | 7 | 102 | 0.0 | 0.0 | 0.00 | 0.91 | 0.91 | 95 | 1010.0 |
| 20260506133637 | 7 | 53 | 0.0 | 1.6 | 0.00 | 0.91 | 0.91 | 96 | 1010.0 |
| 20260506133134 | 7 | 107 | 0.0 | 0.0 | 0.00 | 0.91 | 0.91 | 96 | 1010.0 |
| 20260506132632 | 7 | 91 | 0.0 | 0.0 | 0.00 | 0.91 | 0.91 | 96 | 1010.1 |
| 20260506132128 | 7 | 128 | 0.0 | 0.0 | 0.00 | 0.91 | 0.91 | 97 | 1009.9 |
| 20260506131626 | 7 | 91 | 1.6 | 3.2 | 0.00 | 0.91 | 0.91 | 97 | 1010.0 |
| 20260506131121 | 7 | 93 | 0.0 | 0.0 | 0.00 | 0.91 | 0.91 | 98 | 1009.7 |
| 20260506130619 | 7 | 107 | 0.0 | 0.0 | 0.00 | 0.91 | 0.91 | 98 | 1010.0 |
| 20260506130116 | 7 | 105 | 0.0 | 0.0 | 0.00 | 0.91 | 0.91 | 99 | 1009.9 |
| 20260506125615 | 7 | 252 | 1.6 | 1.6 | 0.00 | 0.91 | 0.91 | 99 | 1009.3 |
| 20260506125112 | 7 | 101 | 3.2 | 4.8 | 0.00 | 0.91 | 0.91 | 99 | 1009.1 |
| 20260506124610 | 7 | 97 | 0.0 | 0.0 | 0.00 | 0.91 | 0.91 | 99 | 1009.2 |
| 20260506124107 | 7 | 96 | 0.0 | 0.0 | 0.00 | 0.91 | 0.91 | 99 | 1009.2 |
| 20260506123604 | 7 | 118 | 0.0 | 0.0 | 0.00 | 0.91 | 0.91 | 99 | 1008.9 |
| 20260506123103 | 7 | 98 | 0.0 | 0.0 | 0.00 | 0.91 | 0.91 | 99 | 1008.8 |
| 20260506122559 | 7 | 103 | 0.0 | 0.0 | 0.00 | 0.91 | 0.91 | 99 | 1008.7 |
| 20260506122057 | 6 | 109 | 0.0 | 0.0 | 0.00 | 0.91 | 0.91 | 99 | 1008.7 |
| 20260506121555 | 7 | 107 | 0.0 | 0.0 | 0.00 | 0.91 | 0.91 | 99 | 1009.0 |
| 20260506121051 | 7 | 105 | 0.0 | 0.0 | 0.00 | 0.91 | 0.91 | 99 | 1008.9 |
| 20260506120549 | 7 | 103 | 0.0 | 0.0 | 0.00 | 0.91 | 0.91 | 99 | 1008.8 |
| 20260506120046 | 7 | 81 | 0.0 | 0.0 | 0.00 | 0.91 | 0.91 | 99 | 1008.5 |
| 20260506115544 | 7 | 100 | 0.0 | 0.0 | 0.00 | 0.91 | 0.91 | 99 | 1008.7 |
| 20260506115042 | 7 | 92 | 0.0 | 1.6 | 0.00 | 0.91 | 0.91 | 99 | 1008.4 |
| 20260506114539 | 7 | 94 | 0.0 | 0.0 | 0.00 | 0.91 | 0.91 | 99 | 1008.2 |
| 20260506114037 | 7 | 59 | 0.0 | 1.6 | 0.00 | 0.91 | 0.91 | 99 | 1008.3 |
| 20260506113535 | 7 | 86 | 0.0 | 0.0 | 0.00 | 0.91 | 0.91 | 99 | 1008.4 |
| 20260506113032 | 7 | 89 | 0.0 | 0.0 | 0.00 | 0.91 | 0.91 | 99 | 1008.1 |
| 20260506112528 | 7 | 63 | 0.0 | 1.6 | 0.00 | 0.91 | 0.91 | 99 | 1007.7 |
| 20260506112026 | 7 | 60 | 0.0 | 1.6 | 0.00 | 0.91 | 0.91 | 99 | 1007.9 |
| 20260506111524 | 7 | 59 | 0.0 | 0.0 | 0.00 | 0.91 | 0.91 | 99 | 1008.1 |
| 20260506111021 | 7 | 93 | 0.0 | 0.0 | 0.00 | 0.91 | 0.91 | 99 | 1008.3 |
| 20260506110519 | 7 | 26 | 0.0 | 1.6 | 0.00 | 0.91 | 0.91 | 99 | 1008.0 |
| 20260506110016 | 7 | 157 | 0.0 | 0.0 | 0.00 | 0.91 | 0.91 | 99 | 1007.6 |
| 20260506105511 | 7 | 102 | 0.0 | 0.0 | 0.00 | 0.91 | 0.91 | 99 | 1007.9 |
| 20260506105009 | 7 | 98 | 0.0 | 0.0 | 0.00 | 0.91 | 0.91 | 99 | 1007.8 |
| 20260506104507 | 7 | 90 | 0.0 | 0.0 | 0.00 | 0.91 | 0.91 | 99 | 1008.1 |
| 20260506104005 | 7 | 81 | 0.0 | 0.0 | 0.00 | 0.91 | 0.91 | 99 | 1008.4 |
| 20260506103501 | 7 | 109 | 0.0 | 0.0 | 0.00 | 0.91 | 0.91 | 99 | 1008.0 |
| 20260506102958 | 7 | 105 | 0.0 | 0.0 | 0.00 | 0.91 | 0.91 | 99 | 1008.0 |
| 20260506102456 | 7 | 98 | 0.0 | 0.0 | 0.00 | 0.91 | 0.91 | 99 | 1007.3 |
| 20260506101953 | 7 | 106 | 0.0 | 1.6 | 0.00 | 0.91 | 0.91 | 99 | 1007.3 |
| 20260506101449 | 7 | 100 | 0.0 | 0.0 | 0.00 | 0.91 | 0.91 | 99 | 1007.3 |
| 20260506100947 | 7 | 113 | 0.0 | 0.0 | 0.00 | 0.91 | 0.91 | 99 | 1006.6 |
| 20260506100445 | 7 | 93 | 0.0 | 0.0 | 0.00 | 0.91 | 0.91 | 99 | 1006.9 |
| 20260506095943 | 7 | 98 | 0.0 | 0.0 | 0.00 | 0.91 | 0.91 | 99 | 1006.6 |
| 20260506095441 | 7 | 107 | 0.0 | 0.0 | 0.00 | 0.91 | 0.91 | 99 | 1005.9 |
| 20260506094936 | 7 | 118 | 0.0 | 0.0 | 0.00 | 0.91 | 0.91 | 99 | 1006.5 |
| 20260506094435 | 7 | 84 | 0.0 | 0.0 | 0.00 | 0.91 | 0.91 | 99 | 1006.7 |
| 20260506093932 | 7 | 118 | 3.2 | 3.2 | 0.00 | 0.91 | 0.91 | 99 | 1006.8 |
| 20260506093431 | 7 | 94 | 0.0 | 0.0 | 0.13 | 0.91 | 0.91 | 99 | 1006.9 |
| 20260506092928 | 7 | 106 | 0.0 | 0.0 | 0.13 | 0.91 | 0.91 | 99 | 1007.1 |
| 20260506092426 | 7 | 98 | 0.0 | 0.0 | 0.18 | 0.89 | 0.89 | 99 | 1006.9 |
| 20260506091922 | 7 | 93 | 0.0 | 0.0 | 0.18 | 0.89 | 0.89 | 99 | 1006.9 |
| 20260506091420 | 7 | 96 | 0.0 | 0.0 | 0.13 | 0.86 | 0.86 | 99 | 1007.2 |
| 20260506090917 | 7 | 99 | 0.0 | 0.0 | 0.13 | 0.86 | 0.86 | 99 | 1007.2 |
| 20260506090415 | 7 | 87 | 0.0 | 0.0 | 0.18 | 0.84 | 0.84 | 99 | 1007.2 |
| 20260506085911 | 7 | 96 | 0.0 | 0.0 | 0.18 | 0.84 | 0.84 | 99 | 1007.3 |
| 20260506085408 | 7 | 94 | 0.0 | 0.0 | 0.00 | 0.81 | 0.81 | 99 | 1007.3 |
| 20260506084904 | 7 | 90 | 0.0 | 0.0 | 0.13 | 0.81 | 0.81 | 99 | 1007.1 |
| 20260506084401 | 7 | 89 | 0.0 | 1.6 | 0.13 | 0.81 | 0.81 | 99 | 1006.9 |
| 20260506083857 | 7 | 88 | 0.0 | 1.6 | 0.18 | 0.79 | 0.79 | 99 | 1007.2 |
| 20260506083355 | 7 | 96 | 0.0 | 0.0 | 0.18 | 0.79 | 0.79 | 99 | 1007.1 |
| 20260506082852 | 7 | 110 | 0.0 | 0.0 | 0.00 | 0.76 | 0.76 | 99 | 1007.2 |
| 20260506082349 | 7 | 125 | 0.0 | 0.0 | 0.00 | 0.76 | 0.76 | 99 | 1006.9 |
| 20260506081845 | 7 | 92 | 1.6 | 1.6 | 0.00 | 0.76 | 0.76 | 99 | 1006.9 |
| 20260506081344 | 7 | 98 | 0.0 | 0.0 | 0.00 | 0.76 | 0.76 | 99 | 1007.2 |
| 20260506080841 | 7 | 51 | 1.6 | 3.2 | 0.13 | 0.76 | 0.76 | 99 | 1006.9 |
| 20260506080337 | 7 | 101 | 1.6 | 3.2 | 0.30 | 0.76 | 0.76 | 99 | 1006.8 |
| 20260506073321 | 8 | 83 | 0.0 | 0.0 | 0.36 | 0.64 | 0.64 | 99 | 1006.5 |
| 20260506072818 | 8 | 95 | 0.0 | 0.0 | 0.30 | 0.61 | 0.61 | 99 | 1006.4 |
| 20260506072315 | 8 | 89 | 0.0 | 0.0 | 0.30 | 0.58 | 0.58 | 99 | 1006.3 |
| 20260506071813 | 8 | 100 | 0.0 | 0.0 | 0.30 | 0.56 | 0.56 | 99 | 1006.3 |
| 20260506071311 | 8 | 112 | 0.0 | 0.0 | 0.61 | 0.56 | 0.56 | 99 | 1006.2 |
| 20260506070807 | 8 | 93 | 0.0 | 1.6 | 0.61 | 0.51 | 0.51 | 99 | 1006.5 |
| 20260506070304 | 8 | 98 | 0.0 | 0.0 | 0.61 | 0.46 | 0.46 | 99 | 1006.7 |
| 20260506062241 | 9 | 96 | 0.0 | 0.0 | 0.30 | 0.23 | 0.23 | 99 | 1006.3 |
| 20260506061737 | 9 | 93 | 0.0 | 0.0 | 0.30 | 0.20 | 0.20 | 99 | 1006.0 |
| 20260506061235 | 9 | 100 | 0.0 | 0.0 | 0.30 | 0.20 | 0.20 | 99 | 1006.2 |
| 20260506060734 | 9 | 84 | 0.0 | 0.0 | 0.18 | 0.18 | 0.18 | 99 | 1006.3 |
| 20260506060231 | 9 | 98 | 0.0 | 0.0 | 0.00 | 0.15 | 0.15 | 99 | 1006.6 |
| 20260506051202 | 9 | 75 | 0.0 | 0.0 | 0.00 | 0.03 | 0.03 | 99 | 1006.9 |
| 20260506050700 | 9 | 109 | 0.0 | 0.0 | 0.00 | 0.03 | 0.03 | 99 | 1007.2 |
| 20260506050157 | 10 | 98 | 0.0 | 0.0 | 0.00 | 0.03 | 0.03 | 99 | 1006.8 |
| 20260506044648 | 10 | 97 | 0.0 | 0.0 | 0.00 | 0.03 | 0.03 | 99 | 1006.9 |
| 20260506044145 | 10 | 110 | 0.0 | 0.0 | 0.00 | 0.03 | 0.03 | 99 | 1007.1 |
| 20260506043642 | 10 | 97 | 0.0 | 0.0 | 0.18 | 0.03 | 0.03 | 99 | 1006.8 |
| 20260506043140 | 10 | 94 | 0.0 | 0.0 | 0.18 | 0.03 | 0.03 | 99 | 1006.9 |
| 20260506042639 | 10 | 105 | 0.0 | 0.0 | 0.00 | 0.00 | 0.00 | 99 | 1007.2 |
| 20260506042136 | 10 | 105 | 0.0 | 0.0 | 0.00 | 0.00 | 0.00 | 99 | 1007.3 |
| 20260506041635 | 10 | 80 | 0.0 | 0.0 | 0.00 | 0.00 | 0.00 | 99 | 1007.3 |
| 20260506041131 | 10 | 133 | 1.6 | 1.6 | 0.00 | 0.00 | 0.00 | 99 | 1007.3 |
| 20260506040629 | 10 | 97 | 0.0 | 1.6 | 0.13 | 0.00 | 0.00 | 99 | 1006.8 |
| 20260506040126 | 10 | 59 | 1.6 | 1.6 | 0.13 | 0.00 | 0.00 | 99 | 1007.2 |
| 20260506035622 | 10 | 101 | 0.0 | 0.0 | 0.00 | 1.50 | 1.50 | 99 | 1007.2 |
| 20260506035119 | 10 | 111 | 0.0 | 0.0 | 0.18 | 1.50 | 1.50 | 99 | 1007.5 |
| 20260506034616 | 10 | 129 | 1.6 | 1.6 | 0.18 | 1.50 | 1.50 | 99 | 1007.4 |
| 20260506034113 | 10 | 116 | 0.0 | 0.0 | 0.18 | 1.47 | 1.47 | 99 | 1007.6 |
| 20260506033611 | 10 | 76 | 1.6 | 1.6 | 0.18 | 1.47 | 1.47 | 99 | 1007.5 |
| 20260506033108 | 10 | 45 | 0.0 | 1.6 | 0.30 | 1.45 | 1.45 | 99 | 1007.7 |
| 20260506032605 | 11 | 101 | 0.0 | 0.0 | 0.43 | 1.45 | 1.45 | 99 | 1007.7 |
| 20260506032102 | 11 | 108 | 0.0 | 0.0 | 0.43 | 1.40 | 1.40 | 99 | 1007.9 |
| 20260506031559 | 11 | 143 | 0.0 | 1.6 | 0.30 | 1.37 | 1.37 | 99 | 1007.7 |
| 20260506031056 | 11 | 191 | 1.6 | 1.6 | 0.30 | 1.35 | 1.35 | 99 | 1007.8 |
| 20260506030554 | 12 | 66 | 0.0 | 0.0 | 0.30 | 1.32 | 1.32 | 99 | 1007.6 |
| 20260506030051 | 12 | 109 | 0.0 | 1.6 | 0.30 | 1.30 | 1.30 | 99 | 1007.8 |
| 20260506025548 | 13 | 63 | 1.6 | 1.6 | 0.30 | 1.27 | 1.27 | 99 | 1007.3 |
| 20260506025044 | 13 | 310 | 1.6 | 3.2 | 0.13 | 1.24 | 1.24 | 99 | 1007.3 |
| 20260506024541 | 13 | 113 | 1.6 | 1.6 | 0.30 | 1.24 | 1.24 | 99 | 1007.2 |
| 20260506024037 | 13 | 110 | 0.0 | 0.0 | 0.36 | 1.22 | 1.22 | 99 | 1007.2 |
| 20260506023533 | 13 | 125 | 0.0 | 1.6 | 0.30 | 1.19 | 1.19 | 99 | 1007.3 |
| 20260506023031 | 13 | 113 | 0.0 | 0.0 | 0.30 | 1.17 | 1.17 | 99 | 1007.4 |
| 20260506022528 | 13 | 133 | 0.0 | 0.0 | 0.30 | 1.14 | 1.14 | 99 | 1007.5 |
| 20260506022026 | 13 | 133 | 0.0 | 1.6 | 0.13 | 1.12 | 1.12 | 99 | 1007.4 |
| 20260506021523 | 13 | 108 | 0.0 | 0.0 | 0.18 | 1.09 | 1.09 | 99 | 1007.6 |
| 20260506021020 | 13 | 114 | 0.0 | 0.0 | 0.18 | 1.09 | 1.09 | 99 | 1007.7 |
| 20260506020518 | 13 | 110 | 0.0 | 0.0 | 0.00 | 1.07 | 1.07 | 99 | 1007.4 |
| 20260506020015 | 13 | 118 | 0.0 | 0.0 | 0.00 | 1.07 | 1.07 | 99 | 1007.5 |
| 20260506015512 | 13 | 124 | 0.0 | 0.0 | 0.13 | 1.07 | 1.07 | 99 | 1007.7 |
| 20260506015009 | 14 | 107 | 0.0 | 0.0 | 0.30 | 1.07 | 1.07 | 99 | 1007.5 |
| 20260506014507 | 14 | 0 | 1.6 | 1.6 | 0.18 | 1.04 | 1.04 | 99 | 1007.6 |
| 20260506014002 | 14 | 117 | 0.0 | 1.6 | 0.00 | 1.02 | 1.02 | 99 | 1007.5 |
| 20260506013500 | 14 | 72 | 1.6 | 1.6 | 0.00 | 1.02 | 1.02 | 99 | 1007.5 |
| 20260506012956 | 14 | 85 | 1.6 | 1.6 | 0.13 | 1.02 | 1.02 | 99 | 1007.5 |
| 20260506012453 | 14 | 90 | 0.0 | 1.6 | 0.13 | 1.02 | 1.02 | 99 | 1007.4 |
| 20260506011950 | 14 | 181 | 0.0 | 1.6 | 0.18 | 0.99 | 0.99 | 99 | 1007.2 |
| 20260506011447 | 14 | 99 | 0.0 | 0.0 | 0.61 | 0.99 | 0.99 | 99 | 1007.4 |
| 20260506010944 | 14 | 88 | 1.6 | 1.6 | 0.79 | 0.97 | 0.97 | 99 | 1007.3 |
| 20260506010443 | 14 | 260 | 1.6 | 1.6 | 0.89 | 0.91 | 0.91 | 99 | 1007.4 |
| 20260506005939 | 14 | 102 | 0.0 | 0.0 | 0.61 | 0.84 | 0.84 | 99 | 1007.1 |
| 20260506005437 | 14 | 116 | 0.0 | 0.0 | 0.30 | 0.76 | 0.76 | 99 | 1007.1 |
| 20260506004932 | 14 | 110 | 0.0 | 0.0 | 0.30 | 0.74 | 0.74 | 99 | 1006.9 |
| 20260506004430 | 14 | 113 | 0.0 | 0.0 | 0.18 | 0.71 | 0.71 | 99 | 1007.1 |
| 20260506003925 | 14 | 115 | 0.0 | 0.0 | 0.13 | 0.69 | 0.69 | 99 | 1007.1 |
| 20260506003422 | 14 | 117 | 0.0 | 0.0 | 0.13 | 0.69 | 0.69 | 99 | 1007.2 |
| 20260506002919 | 14 | 113 | 0.0 | 0.0 | 0.00 | 0.66 | 0.66 | 99 | 1007.1 |
| 20260506002415 | 14 | 114 | 0.0 | 0.0 | 0.00 | 0.66 | 0.66 | 99 | 1007.2 |
| 20260506001910 | 14 | 114 | 0.0 | 0.0 | 0.00 | 0.66 | 0.66 | 99 | 1007.1 |
| 20260506001408 | 14 | 114 | 0.0 | 0.0 | 0.00 | 0.66 | 0.66 | 99 | 1007.1 |
| 20260506000905 | 14 | 116 | 0.0 | 0.0 | 0.18 | 0.66 | 0.66 | 99 | 1007.2 |
| 20260506000403 | 14 | 107 | 0.0 | 0.0 | 0.18 | 0.66 | 0.66 | 99 | 1007.1 |
| 20260505235859 | 14 | 113 | 0.0 | 0.0 | 0.00 | 0.64 | 0.64 | 99 | 1006.9 |
| 20260505235357 | 14 | 111 | 0.0 | 0.0 | 0.00 | 0.64 | 0.64 | 98 | 1007.4 |
| 20260505234853 | 14 | 110 | 0.0 | 0.0 | 0.13 | 0.64 | 0.64 | 98 | 1007.4 |
| 20260505234351 | 14 | 109 | 0.0 | 0.0 | 0.43 | 0.64 | 0.64 | 98 | 1007.3 |
| 20260505233848 | 14 | 107 | 1.6 | 1.6 | 0.30 | 0.61 | 0.61 | 98 | 1007.4 |
| 20260505233346 | 14 | 132 | 0.0 | 1.6 | 0.00 | 0.56 | 0.56 | 98 | 1007.5 |
| 20260505232843 | 14 | 130 | 0.0 | 1.6 | 0.00 | 0.56 | 0.56 | 98 | 1007.3 |
| 20260505232341 | 14 | 113 | 1.6 | 1.6 | 0.00 | 0.56 | 0.56 | 98 | 1007.5 |
| 20260505231837 | 14 | 110 | 0.0 | 0.0 | 0.00 | 0.56 | 0.56 | 98 | 1007.3 |
| 20260505231335 | 14 | 111 | 0.0 | 1.6 | 0.00 | 0.56 | 0.56 | 98 | 1007.5 |
| 20260505230833 | 14 | 113 | 0.0 | 0.0 | 0.00 | 0.56 | 0.56 | 98 | 1007.4 |
| 20260505230330 | 14 | 96 | 0.0 | 1.6 | 0.18 | 0.56 | 0.56 | 98 | 1007.6 |
| 20260505225826 | 14 | 79 | 0.0 | 1.6 | 0.18 | 0.56 | 0.56 | 97 | 1007.5 |
| 20260505225324 | 14 | 130 | 0.0 | 0.0 | 0.00 | 0.53 | 0.53 | 97 | 1007.6 |
| 20260505224819 | 14 | 113 | 0.0 | 0.0 | 0.18 | 0.53 | 0.53 | 97 | 1007.5 |
| 20260505224317 | 14 | 131 | 1.6 | 3.2 | 0.30 | 0.53 | 0.53 | 97 | 1007.8 |
| 20260505223814 | 14 | 142 | 1.6 | 1.6 | 0.30 | 0.51 | 0.51 | 96 | 1007.8 |
| 20260505223311 | 14 | 110 | 1.6 | 1.6 | 0.30 | 0.48 | 0.48 | 96 | 1007.9 |
| 20260505222806 | 14 | 181 | 0.0 | 1.6 | 0.43 | 0.46 | 0.46 | 96 | 1007.8 |
| 20260505222305 | 14 | 255 | 3.2 | 3.2 | 0.79 | 0.43 | 0.43 | 95 | 1007.7 |
| 20260505221800 | 15 | 167 | 0.0 | 1.6 | 0.79 | 0.38 | 0.38 | 94 | 1007.6 |
| 20260505221257 | 15 | 196 | 3.2 | 4.8 | 1.68 | 0.33 | 0.33 | 93 | 1007.6 |
| 20260505220754 | 16 | 166 | 3.2 | 3.2 | 1.19 | 0.25 | 0.25 | 89 | 1007.7 |
| 20260505220251 | 17 | 343 | 1.6 | 3.2 | 0.00 | 0.05 | 0.05 | 79 | 1006.7 |
| 20260505215749 | 18 | 228 | 1.6 | 3.2 | 0.00 | 0.05 | 0.05 | 71 | 1006.4 |
| 20260505215246 | 18 | 122 | 3.2 | 4.8 | 0.00 | 0.05 | 0.05 | 67 | 1006.3 |
| 20260505214744 | 18 | 274 | 4.8 | 4.8 | 0.00 | 0.05 | 0.05 | 68 | 1006.5 |
| 20260505214241 | 18 | 133 | 3.2 | 3.2 | 0.00 | 0.05 | 0.05 | 68 | 1006.4 |
| 20260505213738 | 18 | 66 | 0.0 | 0.0 | 0.00 | 0.05 | 0.05 | 69 | 1006.3 |
| 20260505213236 | 18 | 127 | 1.6 | 3.2 | 0.00 | 0.05 | 0.05 | 69 | 1006.5 |
| 20260505212731 | 18 | 350 | 1.6 | 1.6 | 0.00 | 0.05 | 0.05 | 69 | 1006.4 |
| 20260505212229 | 18 | 122 | 0.0 | 0.0 | 0.00 | 0.05 | 0.05 | 70 | 1006.3 |
| 20260505211726 | 18 | 106 | 0.0 | 0.0 | 0.00 | 0.05 | 0.05 | 72 | 1006.2 |
| 20260505211223 | 18 | 110 | 0.0 | 0.0 | 0.00 | 0.05 | 0.05 | 71 | 1006.4 |
| 20260505210719 | 18 | 135 | 3.2 | 3.2 | 0.00 | 0.05 | 0.05 | 71 | 1006.5 |
| 20260505210216 | 18 | 73 | 0.0 | 0.0 | 0.00 | 0.05 | 0.05 | 71 | 1006.5 |
| 20260505205714 | 18 | 90 | 0.0 | 0.0 | 0.00 | 0.05 | 0.05 | 71 | 1006.9 |
| 20260505205212 | 18 | 119 | 0.0 | 0.0 | 0.00 | 0.05 | 0.05 | 70 | 1006.6 |